Temperature
17 17 17 17 17 17 17 17 17 17 17 17 17 17 17 17 17 17 17 17 17 17 17 17 17 18 18 18 18 18 18 18 18 18 18 18 18 18 18 18 18 18 18
18 17 17 17 17 17 17 17 17 17 17 17 17 17 17 17 17 17 17 17 17 17 17 17 17 17 17 18 17 17 17 18 17 18 18 18 18 17 17 18 18 18 18
17 17 17 17 17 17 17 17 17 17 17 17 17 17 17 17 17 17 17 17 17 17 17 17 17 17 17 17 17 17 17 17 17 17 17 17 17 17 17 17 17 17 17
17 17 17 17 17 17 17 17 17 17 17 17 17 17 17 17 17 17 17 17 17 17 17 17 17 17 17 17 17 17 17 17 17 17 17 17 17 17 17 17 17 17 17
17 17 17 17 17 17 17 17 17 17 17 17 17 17 17 17 16 16 17 17 17 17 17 17 17 17 17 17 17 17 17 17 17 17 17 17 17 17 17 17 17 17 17
17 17 17 17 17 17 17 17 17 17 17 16 16 17 17 16 16 16 16 16 16 16 16 17 17 17 17 17 17 17 17 17 17 17 17 17 17 17 17 17 17 17 17
17 17 17 17 17 17 17 17 16 16 16 16 16 16 16 16 16 16 16 16 16 16 16 16 16 16 16 16 16 16 16 16 16 16 16 16 17 17 17 17 17 17 17
17 17 17 17 17 17 16 16 16 16 16 16 16 16 16 16 16 16 16 16 16 16 16 16 16 16 16 16 16 16 16 16 16 16 16 16 16 16 16 16 16 16 16
17 17 17 17 17 16 16 16 16 16 16 16 16 16 16 16 16 16 16 16 16 16 16 16 16 16 16 16 16 16 16 16 16 16 16 16 16 16 16 16 16 16 16
17 17 17 17 17 16 16 16 16 16 16 16 16 16 16 16 16 16 16 16 16 16 16 16 16 16 16 16 16 16 16 16 16 16 16 16 16 16 16 16 16 16 16
17 17 17 17 16 16 16 16 16 16 16 16 16 16 16 16 16 16 16 16 15 15 16 16 16 16 16 16 16 16 16 16 16 16 16 16 16 16 16 16 16 16 16
17 17 16 16 16 16 16 16 16 16 16 16 16 16 16 16 16 16 16 15 15 15 16 16 16 16 16 16 16 16 16 16 16 16 16 15 16 16 15 15 15 16 16
17 16 16 16 16 16 16 16 16 16 16 16 16 16 15 15 16 16 16 15 16 16 16 16 16 15 15 16 16 16 15 15 15 15 15 15 15 15 15 15 15 15 15
17 16 16 16 16 16 16 16 16 16 16 16 16 16 16 16 16 15 15 15 15 15 15 15 15 15 15 15 15 15 15 15 15 15 15 15 15 15 15 15 15 15 15
17 16 16 16 16 16 16 16 16 16 16 16 15 15 15 15 15 15 15 15 15 15 15 15 15 15 15 15 15 15 15 15 15 15 15 15 15 14 14 15 15 15 15
17 16 16 16 16 16 16 16 16 15 15 15 15 15 15 15 15 15 15 15 15 15 15 15 15 15 15 15 15 15 15 15 15 15 15 15 15 14 14 14 14 14 14
17 16 16 16 16 16 16 16 15 15 15 15 15 15 15 15 15 15 15 15 15 15 15 15 15 15 15 15 15 15 15 15 14 14 14 14 14 14 14 14 14 14 14
17 16 16 16 16 16 16 15 15 15 15 15 15 15 15 15 15 15 15 15 15 15 15 15 15 15 15 14 14 14 14 14 14 14 14 14 14 14 14 14 14 14 14
16 16 16 16 16 16 16 15 15 15 15 15 15 15 15 15 15 14 14 15 15 15 15 15 14 15 14 14 14 14 14 14 14 14 14 14 14 14 14 14 14 14 14
16 16 16 16 16 16 15 15 15 15 15 15 15 14 14 14 14 14 14 14 14 14 14 14 14 14 14 14 14 14 14 14 14 14 14 14 14 14 14 14 14 14 14
16 16 16 16 16 15 15 15 15 15 15 15 14 14 14 14 14 14 14 14 14 14 14 14 14 14 14 14 14 14 14 14 14 14 14 14 14 14 14 14 13 13 13
16 16 16 16 16 15 15 15 15 15 15 14 14 14 14 14 14 14 14 14 14 14 14 14 14 14 14 14 14 14 14 13 14 13 13 13 13 13 13 13 13 13 13
16 16 16 16 16 15 15 15 15 15 14 14 14 14 14 14 14 14 14 14 14 14 14 14 14 14 14 13 13 13 13 13 13 13 13 13 13 13 13 13 13 13 13
16 16 16 16 16 15 15 15 15 15 14 14 14 14 14 14 14 14 14 13 13 13 13 13 13 13 13 13 13 13 13 13 13 13 13 13 13 13 13 13 13 13 13
16 16 16 16 15 15 15 15 15 14 14 14 14 14 14 14 14 14 13 13 13 13 13 13 13 13 13 13 13 13 13 13 13 13 13 13 13 13 13 12 12 13 13
16 16 16 15 15 15 15 15 14 14 14 14 14 14 14 14 14 13 13 13 13 13 13 13 13 13 13 13 13 13 13 13 13 13 12 12 12 13 12 12 12 12 13
Wind_Speed
1 1 2 3 5 5 6 7 7 8 8 8 8 9 9 10 10 10 10 10 10 10 10 10 11 11 11 11 11 11 11 11 10 10 9 8 8 8 8 8 7 6 7
2 1 3 4 5 6 6 6 7 7 7 7 8 8 9 9 9 9 9 10 10 10 10 11 11 11 11 10 10 10 11 10 10 9 9 8 7 7 7 7 7 6 7
3 2 4 5 5 6 6 6 6 6 7 7 7 8 8 8 9 9 9 9 10 10 10 10 11 11 11 11 10 10 10 10 9 9 8 5 5 7 7 7 7 6 6
3 4 4 5 6 6 6 5 5 6 6 6 7 7 8 8 8 8 9 9 9 10 10 10 10 11 11 10 10 9 9 9 9 8 6 5 5 6 6 6 6 6 5
4 5 5 6 6 6 5 5 5 4 5 6 7 7 7 8 8 8 9 9 9 10 10 10 10 10 10 10 10 10 9 9 10 9 7 6 5 6 7 7 6 6 5
4 4 4 5 6 6 5 5 5 4 5 6 7 8 8 8 8 8 9 10 10 10 10 10 10 10 10 10 9 9 9 9 9 8 7 6 6 7 7 7 6 6 6
3 4 4 5 5 5 6 6 6 6 6 8 9 8 8 8 9 9 9 9 10 10 10 10 10 10 10 9 9 10 9 9 8 7 6 5 6 8 8 7 6 6 6
4 4 4 5 5 6 6 7 7 7 8 9 9 8 8 9 9 9 9 9 9 10 10 10 10 10 10 10 11 10 10 9 7 6 5 4 6 7 7 7 7 7 6
4 5 5 5 5 5 6 7 7 8 8 8 8 7 7 8 8 9 9 9 9 10 10 10 10 10 10 11 11 11 11 11 8 6 5 4 6 7 8 7 7 7 7
4 4 4 5 5 5 5 6 7 8 8 8 7 7 7 7 7 7 8 8 8 9 9 10 10 10 11 11 11 11 11 10 8 7 5 5 7 8 8 8 7 7 7
3 3 3 3 4 4 4 5 6 6 7 7 7 7 7 7 7 6 7 8 8 8 8 9 10 10 10 11 11 11 10 8 8 6 5 6 7 7 8 8 8 8 8
1 1 1 2 2 3 3 5 5 5 5 6 6 6 6 6 5 5 7 8 8 8 8 9 10 10 10 9 9 10 8 8 7 6 6 7 8 8 8 9 9 9 8
1 1 0 1 2 2 3 3 4 4 5 5 5 5 5 5 5 5 5 6 7 7 7 8 8 8 8 7 7 7 7 7 6 6 6 8 9 9 9 9 9 9 9
1 1 1 1 2 2 3 3 3 3 3 3 4 4 4 3 3 3 4 4 5 5 5 6 5 7 7 7 6 6 6 6 6 6 7 9 9 9 10 9 9 9 10
2 1 1 2 2 2 2 2 3 3 2 2 3 3 4 3 2 3 3 4 4 4 4 4 4 5 5 5 5 5 5 5 6 6 6 8 8 9 9 8 8 9 9
2 1 1 2 2 2 2 2 2 2 2 3 2 3 4 3 3 3 3 3 3 3 3 4 3 3 3 3 4 4 4 5 5 6 6 7 8 8 8 7 7 8 8
2 2 2 2 3 3 2 2 2 2 3 2 2 3 4 3 3 3 2 2 2 3 4 4 4 3 3 3 3 3 4 4 4 5 5 6 7 8 8 8 7 7 7
3 2 2 2 3 3 3 3 3 3 4 2 2 3 3 3 3 3 2 2 2 3 3 3 2 3 3 2 2 2 3 3 4 4 5 5 5 6 7 8 8 7 7
4 3 3 3 3 3 3 3 3 3 3 3 3 2 2 2 3 3 2 2 3 3 3 2 2 2 2 2 2 2 3 3 3 3 4 4 4 4 5 6 7 7 7
3 4 3 3 3 3 3 3 3 3 3 3 2 2 1 1 3 3 2 2 3 3 2 2 3 2 2 2 2 3 3 3 3 3 3 3 4 4 5 5 6 6 7
3 3 3 3 3 3 2 2 2 1 1 2 2 2 2 2 2 3 2 2 2 2 1 2 2 3 2 1 2 3 3 3 3 3 3 3 4 4 5 5 5 5 4
4 3 3 3 3 2 2 1 1 1 1 1 1 2 2 2 2 2 2 2 2 2 2 2 2 2 1 2 2 2 2 3 3 2 2 3 3 4 4 5 4 4 5
4 4 4 3 3 2 2 2 3 3 2 2 2 2 2 2 2 2 2 2 1 2 1 1 2 3 1 1 1 2 2 2 1 2 2 2 3 3 3 3 4 4 4
5 4 4 3 3 3 3 3 3 2 1 1 1 0 1 1 1 1 1 1 1 1 1 1 1 1 2 1 1 1 1 2 2 1 2 2 3 3 3 3 3 4 4
5 4 4 3 2 2 3 3 3 2 1 0 0 1 1 1 1 1 1 1 1 1 1 1 1 1 1 2 1 1 1 1 1 2 1 2 2 2 2 3 3 3 3
3 3 3 3 2 2 3 3 3 3 1 1 0 0 0 1 1 1 1 0 1 0 1 1 2 2 1 1 1 2 2 2 2 2 2 1 1 2 2 2 2 3 3
Wind_Direction
247 261 130 96 82 81 83 80 82 82 83 82 81 82 82 82 81 81 81 79 77 75 75 78 80 77 80 88 92 94 98 101 101 101 101 104 106 104 103 103 104 99 99
172 174 130 107 88 85 85 80 84 87 88 86 83 84 83 84 83 82 81 79 77 75 74 76 78 77 76 85 91 94 95 96 97 97 95 99 105 106 106 103 100 97 98
127 125 123 109 94 89 88 82 87 89 88 87 87 86 84 84 86 85 83 80 78 77 77 77 78 77 77 80 87 89 92 92 92 89 85 77 93 98 99 97 96 95 94
113 101 110 105 93 92 88 81 81 84 87 88 89 88 85 84 85 85 80 79 79 79 79 79 78 77 76 78 79 84 88 88 87 84 73 64 78 97 97 95 94 95 93
87 86 99 99 94 92 86 77 74 78 92 97 95 91 86 84 84 82 77 75 75 75 77 77 77 77 76 80 80 80 87 89 81 72 67 62 65 86 91 91 92 91 89
80 85 95 91 90 85 80 72 63 73 97 106 100 95 90 86 84 82 79 77 75 73 73 74 75 75 75 80 81 82 85 84 79 70 66 62 62 75 85 86 85 83 83
87 78 88 90 87 80 74 70 60 68 95 104 100 94 88 85 86 84 80 78 75 72 69 71 72 72 74 78 81 82 81 79 76 71 65 61 66 73 76 77 81 86 82
89 69 69 73 75 75 67 64 53 70 88 98 97 92 87 84 82 81 79 77 75 73 71 69 69 71 73 77 81 77 76 77 75 68 62 61 73 77 75 75 76 78 83
72 62 51 47 53 66 64 64 57 75 88 91 90 87 84 82 79 77 75 75 75 70 69 68 67 69 73 79 81 80 79 74 68 59 60 60 71 74 75 74 72 71 70
61 55 47 45 44 44 51 59 58 68 77 81 83 81 80 77 73 69 68 71 73 72 70 68 64 68 73 76 78 77 76 70 61 54 54 61 67 69 71 71 69 67 65
66 45 42 42 44 40 44 54 56 59 60 63 67 69 67 62 59 59 63 66 66 67 69 70 69 72 74 74 77 73 67 59 52 45 46 61 68 71 73 72 68 66 65
113 53 33 41 44 44 44 50 50 52 53 54 58 58 62 64 59 57 57 60 62 62 65 67 70 70 70 69 69 68 62 56 50 39 40 56 66 67 68 71 69 67 64
179 131 75 76 61 55 47 59 54 56 57 54 55 61 67 61 53 48 49 47 51 58 58 59 63 66 69 70 68 65 61 56 47 38 40 53 60 65 70 72 70 68 64
109 98 51 78 75 66 68 63 68 67 61 52 47 62 72 68 57 48 51 46 53 61 61 61 67 69 69 70 71 67 59 54 45 37 41 54 60 64 68 71 69 66 63
137 134 116 103 94 88 83 70 74 71 73 64 57 64 81 82 68 62 57 56 55 65 70 69 72 76 71 65 64 66 57 51 46 43 35 48 58 61 62 64 64 61 60
159 141 105 106 101 96 91 77 74 85 94 84 71 67 85 97 93 85 70 62 58 66 82 86 82 81 72 68 57 56 51 47 45 44 38 37 45 54 57 58 60 58 54
164 141 120 126 101 94 86 80 85 83 91 83 79 71 76 91 98 96 86 72 61 74 87 88 75 75 76 68 51 45 47 40 39 38 36 33 34 39 43 49 52 55 55
143 126 115 110 104 106 103 85 75 78 85 82 81 74 68 79 98 95 86 67 65 80 86 92 80 71 61 61 50 32 36 31 27 29 33 32 34 31 32 41 43 45 48
154 138 115 103 108 103 98 90 79 79 81 78 73 75 73 81 100 102 88 72 77 83 78 85 69 81 78 64 55 41 31 29 13 25 27 27 32 33 33 34 36 36 39
139 127 118 99 92 92 83 79 70 61 59 59 61 51 63 95 108 114 102 88 90 83 69 72 76 67 81 77 65 45 20 20 23 25 17 24 32 36 38 35 30 23 26
125 126 132 125 112 107 92 97 101 77 33 36 41 35 40 76 97 110 103 102 94 93 96 97 94 83 62 59 69 31 11 22 30 23 20 33 30 27 36 33 29 23 11
161 160 147 149 146 144 131 132 136 132 92 53 26 25 42 62 79 116 117 116 105 101 89 91 100 104 63 53 102 91 13 356 1 14 23 36 23 26 30 29 29 24 19
183 185 176 177 159 148 121 100 78 64 50 41 22 6 9 44 58 86 107 117 116 122 142 156 137 129 135 43 69 131 145 222 307 343 9 22 20 24 13 20 24 17 17
202 191 175 169 156 150 135 129 127 124 150 223 225 273 342 20 41 60 111 123 131 135 157 188 140 131 138 145 62 63 136 162 160 321 342 3 17 19 7 7 5 8 16
195 181 173 157 157 159 153 153 147 141 183 208 57 56 9 7 24 21 86 115 122 156 178 173 146 133 147 158 163 149 114 75 127 160 245 317 351 349 358 353 357 360 7
178 165 157 154 165 167 162 161 161 166 167 130 98 150 332 346 359 5 47 108 172 179 190 183 172 157 168 163 169 164 166 172 192 168 191 234 278 302 337 350 353 343 349
Height
1511 1511 1511 1511 1511 1511 1510 1510 1510 1510 1509 1509 1509 1509 1509 1510 1510 1510 1510 1509 1509 1509 1509 1508 1508 1507 1507 1508 1508 1509 1510 1511 1512 1514 1515 1516 1516 1517 1518 1518 1518 1518 1519
1511 1512 1512 1512 1512 1511 1511 1510 1510 1510 1510 1510 1510 1510 1510 1511 1511 1511 1511 1511 1511 1510 1510 1510 1509 1509 1509 1509 1510 1511 1512 1513 1514 1515 1516 1516 1517 1518 1518 1519 1519 1519 1519
1512 1512 1513 1513 1512 1512 1512 1511 1511 1511 1511 1511 1511 1511 1511 1512 1512 1512 1512 1512 1512 1512 1511 1511 1511 1511 1511 1511 1511 1512 1513 1514 1515 1516 1517 1517 1518 1518 1519 1519 1519 1519 1520
1513 1513 1514 1513 1513 1513 1512 1512 1511 1511 1511 1511 1511 1512 1512 1513 1513 1513 1514 1514 1513 1513 1513 1513 1512 1512 1512 1513 1513 1514 1515 1515 1516 1517 1518 1518 1519 1519 1519 1520 1520 1520 1520
1514 1514 1514 1514 1514 1513 1513 1512 1511 1510 1510 1510 1511 1512 1513 1514 1514 1514 1515 1515 1515 1514 1514 1514 1514 1514 1514 1514 1515 1515 1516 1516 1517 1517 1518 1519 1519 1520 1520 1520 1520 1520 1520
1515 1515 1515 1515 1515 1514 1514 1513 1511 1508 1507 1509 1511 1513 1514 1515 1515 1515 1516 1516 1516 1516 1516 1516 1516 1516 1516 1516 1516 1517 1517 1517 1518 1518 1519 1519 1520 1520 1521 1521 1521 1521 1521
1516 1516 1517 1517 1516 1516 1515 1513 1510 1506 1505 1508 1511 1514 1515 1516 1516 1517 1517 1517 1517 1517 1517 1517 1517 1517 1517 1518 1518 1518 1518 1519 1519 1519 1520 1520 1520 1521 1521 1521 1521 1521 1521
1517 1518 1518 1518 1518 1517 1516 1514 1510 1505 1505 1509 1513 1515 1517 1517 1518 1518 1519 1519 1519 1519 1519 1519 1519 1519 1519 1519 1519 1519 1520 1520 1520 1520 1520 1520 1521 1521 1521 1521 1521 1521 1521
1519 1519 1519 1519 1519 1519 1518 1516 1513 1509 1509 1512 1515 1518 1519 1519 1520 1520 1521 1521 1521 1521 1521 1521 1521 1520 1520 1521 1521 1521 1521 1521 1521 1521 1522 1522 1522 1522 1522 1522 1521 1521 1521
1520 1521 1521 1521 1521 1520 1520 1518 1517 1515 1515 1517 1519 1520 1521 1521 1522 1522 1523 1523 1523 1523 1522 1522 1522 1522 1522 1522 1522 1522 1523 1523 1523 1523 1523 1523 1523 1523 1523 1522 1522 1522 1521
1522 1522 1522 1522 1522 1522 1522 1521 1521 1520 1520 1520 1521 1522 1523 1523 1524 1524 1525 1525 1525 1525 1524 1524 1524 1524 1524 1524 1524 1524 1524 1524 1524 1524 1524 1524 1524 1524 1523 1523 1523 1522 1522
1522 1523 1524 1524 1524 1524 1524 1523 1523 1523 1523 1524 1524 1524 1525 1525 1526 1526 1526 1526 1526 1526 1526 1526 1526 1526 1526 1526 1526 1526 1526 1526 1526 1526 1526 1526 1525 1525 1524 1524 1523 1523 1523
1524 1524 1525 1525 1525 1525 1525 1525 1525 1525 1526 1526 1526 1526 1527 1527 1527 1528 1528 1528 1528 1528 1528 1528 1527 1527 1527 1528 1528 1528 1527 1527 1527 1527 1527 1527 1526 1526 1525 1525 1524 1524 1524
1524 1525 1526 1526 1526 1526 1527 1527 1527 1527 1527 1527 1528 1528 1528 1528 1528 1529 1529 1529 1529 1529 1529 1529 1529 1529 1529 1529 1529 1529 1529 1529 1529 1528 1528 1528 1528 1527 1527 1526 1525 1525 1525
1525 1526 1526 1526 1527 1527 1527 1528 1528 1528 1529 1529 1529 1529 1529 1530 1530 1530 1530 1530 1530 1530 1530 1530 1531 1531 1531 1531 1531 1531 1530 1530 1530 1530 1529 1529 1529 1528 1528 1527 1527 1526 1526
1525 1526 1527 1527 1527 1528 1528 1529 1529 1529 1529 1530 1530 1530 1530 1531 1531 1531 1531 1531 1531 1531 1531 1532 1531 1532 1532 1532 1532 1532 1532 1532 1531 1531 1530 1530 1530 1529 1528 1528 1528 1527 1527
1525 1526 1527 1527 1528 1528 1529 1529 1529 1530 1530 1530 1530 1531 1531 1531 1532 1532 1532 1532 1532 1532 1532 1532 1532 1532 1532 1532 1532 1533 1533 1532 1532 1532 1532 1531 1531 1530 1530 1529 1528 1528 1527
1526 1526 1527 1527 1528 1528 1529 1529 1530 1530 1530 1531 1531 1531 1532 1532 1532 1532 1532 1532 1532 1532 1532 1532 1532 1532 1532 1533 1533 1533 1533 1533 1533 1533 1533 1532 1532 1531 1531 1530 1529 1528 1528
1525 1526 1527 1527 1528 1528 1529 1530 1530 1530 1530 1531 1531 1531 1532 1532 1532 1532 1532 1532 1532 1532 1532 1532 1532 1532 1533 1533 1533 1533 1533 1533 1533 1533 1533 1533 1532 1532 1531 1531 1530 1529 1528
1525 1526 1527 1527 1528 1528 1529 1529 1530 1530 1530 1531 1531 1531 1531 1532 1532 1532 1532 1532 1532 1532 1532 1532 1532 1532 1532 1533 1533 1533 1533 1533 1533 1533 1533 1533 1533 1532 1532 1531 1530 1529 1529
1525 1526 1526 1527 1528 1528 1529 1529 1529 1530 1530 1530 1531 1531 1531 1531 1531 1531 1531 1532 1531 1531 1531 1531 1532 1532 1532 1532 1533 1533 1533 1533 1533 1533 1533 1533 1533 1532 1532 1531 1531 1530 1529
1524 1525 1526 1526 1527 1528 1528 1529 1529 1529 1530 1530 1530 1530 1531 1531 1531 1531 1531 1531 1531 1531 1531 1531 1531 1531 1531 1531 1532 1532 1532 1533 1532 1532 1532 1533 1532 1532 1532 1531 1531 1530 1529
1522 1524 1525 1526 1527 1527 1528 1528 1529 1529 1529 1529 1529 1529 1530 1530 1530 1530 1530 1530 1530 1530 1530 1530 1530 1530 1530 1531 1531 1532 1531 1531 1531 1532 1531 1531 1531 1531 1531 1531 1531 1530 1530
1521 1523 1524 1525 1526 1526 1527 1527 1527 1527 1528 1528 1528 1528 1529 1529 1529 1529 1529 1529 1529 1529 1529 1530 1530 1530 1530 1530 1530 1530 1531 1530 1531 1530 1531 1530 1530 1530 1530 1530 1530 1530 1529
1520 1521 1523 1524 1525 1525 1526 1526 1527 1527 1527 1527 1528 1528 1528 1528 1528 1528 1528 1528 1528 1528 1528 1528 1528 1528 1529 1529 1529 1529 1529 1529 1529 1529 1529 1529 1529 1529 1529 1529 1529 1529 1529
1518 1520 1521 1522 1523 1524 1525 1525 1525 1526 1526 1526 1526 1527 1527 1527 1527 1526 1527 1527 1527 1527 1527 1527 1527 1527 1527 1527 1527 1527 1527 1527 1527 1527 1527 1527 1527 1527 1527 1528 1528 1528 1528